www.pogodaiklimat.ru

Погода и климат >> Архив погоды >> Россия >> Красноярский край >> Сопочная Карга


ПОГОДА в Сопочной Карге

  • Прогноз погоды в Сопочной Карге
  • Монитор погоды в Сопочной Карге

АРХИВ ПОГОДЫ в Сопочной Карге

Время (UTC), дата Ветер
(напр.,м/с)
 
Видим.   Явления Облачность Т
(С)
Тd
(С)
f
(%)
Тe
(С)
Тes
(С)
Комфортность P
(гПа)
Po
(гПа)
Тmin
(С)
Tmax
(С)
R
(мм)
R24
(мм)
S
(см)
21 19.03 ЮВ 2 4000 м дымка 10/10 200 м
[St]
-11.8 -13.1 90 -16 -16 1016.5 1015.8
00 20.03 В 3 20 км 10/10 300 м
[Sc]
-12.4 -13.7 90 -18 -18 1016.9 1016.2 -12.4 0.2 54
03 20.03 В 3 20 км 10/10 300 м
[Sc]
-11.7 -13.0 90 -18 -18 1016.9 1016.2
06 20.03 ЮВ 4 10 км слаб. снег 10/10 300 м
[Sc]
-8.8 -9.9 92 -16 -16 1016.3 1015.6
09 20.03 Ю 5 20 км {снег, метель} 10/6 300 м
[Sc Ac und]
-7.5 -8.4 93 -15 -15 1015.0 1014.3
12 20.03 ЮВ 5 20 км {снег, метель} 10/8 300 м
[Sc Ac und]
-7.3 -8.2 93 -15 -15 1012.7 1012.0 -7.3 0.0
15 20.03 ЮВ 7
{10}
4000 м слаб. снег {метель} 10/0
[Ac und]
-7.3 -8.2 93 -16 -16 1010.3 1009.6
18 20.03 ЮВ 7
{10}
2000 м снег {метель} 10/0
[As op]
-6.4 -7.2 94 -15 -15 1006.8 1006.1
21 20.03 ЮВ 8
{10}
2000 м снег {метель} 10/0 300 м
[As op]
-5.7 -6.4 95 -15 -15 1002.7 1002.0
00 21.03 В 8
{10}
4000 м слаб. снег {метель} 10/0 300 м
[As op]
-5.6 -6.3 95 -15 -15 999.1 998.4 -7.4 1 58
03 21.03 В 6
{10}
10 км слаб. снег {метель} 10/0
[Ac As]
-6.3 -7.1 94 -14 -14 997.3 996.6
06 21.03 СВ 6 20 км позёмок {снег} 10/0
[Ac trans Ci fib]
-6.6 -7.4 94 -15 -14 996.7 996.0
09 21.03 С 6 20 км позёмок 9/0
[Ac trans]
-7.5 -8.4 93 -16 -16 997.6 996.9
12 21.03 СВ 8-10
{11}
20 км позёмок 9/0
[Ac lent]
-8.2 -9.2 92 -18 -18 998.7 998.0 -5.5 0.2
15 21.03 С 9-11
{13}
20 км сильный позёмок 10/0
[Ac trans Ci fib]
-10.4 -11.7 90 -21 -21 1000.9 1000.2
18 21.03 СВ 6
{11}
20 км позёмок 10/0
[Ac und]
-12.6 -13.9 90 -22 -22 1003.3 1002.6
21 21.03 СВ 6 20 км позёмок 6/0
[Ac trans]
-16.2 -18.1 85 -26 -26 1005.0 1004.3
00 22.03 СВ 5 20 км {метель} 5/0
[Ac lent Ci fib]
-16.3 -18.2 85 -25 -25 1007.3 1006.6 -16.7 59
06 22.03 В 4 20 км 3/0
[Ci fib]
-18.2 -21.5 75 -27 -25 1011.5 1010.8
09 22.03 В 4 20 км ясно -19.9 -22.5 80 -29 -28 1013.5 1012.8
12 22.03 В 4 20 км ясно -23.7 -26.1 81 -33 -33 опасность
обморожения
1015.3 1014.6 -15.8
15 22.03 В 4 20 км ясно -28.4 -31.5 75 -39 -39 опасность
обморожения
1016.2 1015.5
18 22.03 В 3 20 км ясно -30.2 -33.2 75 -40 -40 опасность
обморожения
1017.0 1016.2
21 22.03 В 4 20 км ясно -30.1 -33.2 74 -41 -41 опасность
обморожения
1016.8 1016.0
00 23.03 В 5 20 км ясно -29.1 -32.2 74 -41 -41 опасность
обморожения
1016.3 1015.5 -30.6 59
03 23.03 В 5 20 км ясно -28.0 -31.1 75 -40 -39 опасность
обморожения
1015.9 1015.1
06 23.03 В 4 20 км {метель} 3/0
[Ci fib]
-25.2 -27.7 80 -35 -34 опасность
обморожения
1014.9 1014.1
09 23.03 В 5 20 км 5/0
[Ac lent Ci fib]
-23.2 -25.7 80 -34 -33 опасность
обморожения
1013.7 1012.9
12 23.03 В 4 10 км слаб. снег 10/0
[Ac As]
-21.3 -23.8 80 -31 -31 опасность
обморожения
1012.2 1011.5 -21.1 0.0
15 23.03 Ю 4 4000 м слаб. снег {метель} 10/0
[Ac As]
-18.3 -20.2 85 -27 -27 1011.2 1010.5
18 23.03 ЮВ 4 10 км слаб. снег {метель} 10/0
[Ac As]
-18.5 -20.4 85 -27 -27 1009.9 1009.2
21 23.03 ЮВ 3 4000 м слаб. снег 10/0
[Ac As]
-16.5 -18.4 85 -23 -23 1009.6 1008.9
00 24.03 ЮВ 2 4000 м слаб. снег 10/0
[Ac As]
-15.6 -16.9 90 -21 -21 1009.3 1008.6 -21.3 1 59
03 24.03 Ю 4 10 км слаб. снег 10/0
[Ac As]
-12.2 -13.5 90 -19 -19 1009.9 1009.2
06 24.03 Ю 5 20 км {снег} 10/6 600 м
[Sc Ac und]
-10.5 -11.8 90 -18 -18 1009.9 1009.2
09 24.03 Ю 7
{10}
20 км позёмок 10/6 600 м
[Sc Ac und]
-9.3 -10.5 91 -18 -18 1010.2 1009.5
12 24.03 Ю 8-10
{11}
20 км позёмок 10/5 600 м
[Sc Ac und]
-9.1 -10.2 92 -19 -19 1010.0 1009.3 -8.9 0.2
15 24.03 Ю 10-12
{13}
4000 м слаб. снег {метель} 10/0
[Ac As]
-10.3 -11.6 90 -21 -21 1008.8 1008.1
18 24.03 Ю 12-15
{16}
2000 м метель {снег} 10/0
[Ac und]
-10.8 -12.1 90 -22 -22 1007.5 1006.8
21 24.03 Ю 13-16
{17}
500 м сильная метель 10/0
[Ac und]
-10.5 -11.8 90 -22 -22 1005.9 1005.2
00 25.03 Ю 13-16
{17}
500 м сильная метель ?/? -7.9 -8.5 95 -19 -19 1003.8 1003.1 -11.0 0.5 59
03 25.03 ЮЗ 13-16
{17}
500 м сильная метель ?/? -6.3 -7.1 94 -17 -17 1003.5 1002.8
06 25.03 ЮЗ 10-12
{17}
4000 м метель {снег} 10/0
[Ac und]
-4.5 -5.4 93 -14 -14 1004.4 1003.7
09 25.03 ЮЗ 9-11
{13}
20 км сильный позёмок 10/6 600 м
[Sc Ac und]
-3.4 -4.2 94 -12 -12 1005.6 1004.9
12 25.03 ЮЗ 8-10
{12}
20 км позёмок 10/6 600 м
[Sc Ac und]
-3.0 -3.7 95 -12 -12 1006.5 1005.8 -3.0 0.3
15 25.03 ЮЗ 8-10
{11}
4000 м слаб. снег {метель} 10/0
[Ac As]
-3.0 -3.7 95 -12 -12 1007.2 1006.5
18 25.03 ЮЗ 8-10
{11}
4000 м слаб. снег {метель} 10/0
[Ac As]
-3.7 -4.5 94 -12 -12 1007.7 1007.0
21 25.03 ЮЗ 8
{10}
20 км позёмок {снег} 10/0
[Ac und]
-4.5 -5.4 93 -13 -13 1008.3 1007.6
00 26.03 ЮЗ 9-11
{11}
20 км сильный позёмок 10/0
[Ac und]
-4.8 -5.8 93 -14 -14 1008.7 1008.0 -4.9 0.4 59
03 26.03 Ю 6
{11}
20 км позёмок 10/0
[Ac und]
-5.8 -6.9 92 -14 -14 1009.8 1009.1 -5.8
06 26.03 ЮЗ 5
{10}
20 км {метель} 10/0
[Ac trans Ci fib]
-6.0 -7.1 92 -13 -13 1011.4 1010.7
09 26.03 Ю 5 20 км {метель} 10/0
[Ac trans Ci fib]
-5.1 -6.1 93 -12 -12 1012.8 1012.1
12 26.03 Ю 10-12
{13}
4000 м метель 10/0
[Ac und]
-6.6 -7.4 94 -17 -17 1011.9 1011.2 -4.6
15 26.03 Ю 11-13
{15}
2000 м слаб. снег {метель} 10/0
[Ac As]
-4.9 -5.5 96 -15 -15 1010.0 1009.3
18 26.03 Ю 12-14
{15}
2000 м метель {снег} 10/0
[Ac und]
-3.5 -4.3 94 -14 -14 1007.8 1007.1

 

Местоположение метеостанции Сопочная Карга (Красноярский край, Россия): широта 71.87 долгота 82.70 высота над уровнем моря 5 м.

В архиве по умолчанию представлена погода в Сопочной Карге за последнюю неделю. Архивные данные за месяц целиком и за предыдущие месяцы, начиная с января 2011 года, Вы можете получить, выбрав интересующий диапазон дат из раскрывающегося списка и нажав кнопку "Ввод!".


*Определитесь, кто Вы:
робот инопланетянин человек

Внимание! Время в таблицах - всемирное. Для получения местного времени необходимо прибавить поправку, которая равна 7 ч.

Смотрите также архив погоды в соседних городах и на ближайших метеорологических станциях:

Погода в Гыде (Ямало-Ненецкий АО, Россия) (186 км)
Погода на Острове Диксон (Красноярский край, Россия) (199 км)
Погода в Карауле (Красноярский край, Россия) (200 км)
Погода в Крестах Таймырских (Красноярский край, Россия) (279 км)
Погода в Норильске (Красноярский край, Россия) (350 км)
Погода в Антипаюте (Ямало-Ненецкий АО, Россия) (379 км)
Погода в Потапово (Красноярский край, Россия) (380 км)
Погода в Тамбее (Ямало-Ненецкий АО, Россия) (382 км)
Погода в Сеяхе (Ямало-Ненецкий АО, Россия) (413 км)
Погода в Волочанке (Красноярский край, Россия) (429 км)

Пояснения к столбцам:

Ветер - указаны скорость ветра в м/с - средняя за 10 мин, порывы в срок и между сроками (в фигурных скобках) и направление, откуда дует ветер: С - северный, СВ - северо-восточный, В - восточный, ЮВ - юго-восточный, Ю - южный, ЮЗ - юго-западный, З - западный, СЗ - северо-западный.
Видимость - горизонтальная дальность видимости в метрах или километрах. При видимости от 1 до 10 км при отсутствии осадков обычно наблюдается дымка, при ухудшении видимости до 1 км и менее - туман. В сухую погоду видимость может ухудшаться дымом, пылью или мглою.
Явления - указаны атмосферные явления, наблюдавшиеся в срок или в последний час перед сроком; фигурными скобками обозначены явления, наблюдавшиеся между сроками (за 1-3 часа до срока); квадратными скобками обозначены град или гололедные отложения с указанием их диаметра в мм.
Облачность - указаны через наклонную черту общая и нижняя облачность в баллах и высота нижней границы облаков в метрах; квадратными скобками обозначены формы облаков: Ci - перистые, Cs - перисто-слоистые, Cc - перисто-кучевые, Ac - высококучевые, As - высокослоистые, Sc - слоисто-кучевые, Ns - слоисто-дождевые, Cu - кучевые, Cb - кучево-дождевые. Подробнее классификацию облаков см. в Атласе облаков (PDF).
T - Температура воздуха - температура, измеренная на высоте 2 м над землей.
Td - Температура точки росы - температура, при понижении до которой содержащийся в воздухе водяной пар достигнет насыщения.
f - Относительная влажность воздуха - влажноcть воздуха, измеренная на высоте 2 м над землей.
Te - Эффективная температура - температура, которую ощущает одетый по сезону человек в тени. Характеристика душности погоды. При расчете учитывается влияние влажности воздуха и скорости ветра на теплоощущения человека.
Tes - Эффективная температура на солнце - температура, которую ощущает человек, с поправкой на солнечный нагрев. Характеристика знойности погоды. Зависит от высоты солнца над горизонтом, облачности и скорости ветра. Ночью, в пасмурную погоду, а также при ветре 12 м/с и более поправка равна нулю.
P - Атмосферное давление - приведенное к уровню моря атмосферное давление.
Po - Атмосферное давление - измеренное на уровне метеостанции атмосферное давление.
Tmin - Минимальная температура - минимум температуры воздуха на высоте 2 м над землей.
Tmax - Максимальная температура - максимум температуры воздуха на высоте 2 м над землей.
R - Количество осадков - Количество выпавших осадков за период времени, мм. При наведении курсора мыши на число - период времени, за который выпало указанное количество осадков.
R24 - Количество осадков - Количество выпавших осадков за 24 часа, мм.
S - Снежный покров - Высота снежного покрова, см. При наведении курсора мыши на число - состояние снежного покрова и степень покрытия местности в баллах.